Showing default

AE5RA, 66685

Orbit data source: Space-Track

AE5RA, 66685 is a Japanese payload satellite in SSO that was launched on Fri, 28 Nov 2025 UTC via an FALCON 9 launch vehicle from the Air Force Western Test Range (AFWTR). Payload-class satellites include a variety of spacecraft equipped with specific instruments for various scientific and technological missions. These include communications satellites like Starlink; space stations such as the ISS; scientific satellites like the Hubble; Earth observation satellites from companies like Planet Labs, Umbra, and HawkEye 360; GPS; miniature CubeSats for education and research; and military/defense satellites.

Loading next visibility...
Identifier
66685, 2025-276V
Orbit
SSO
Country
Flag of JPJP / JPN
Related business
None
Manufacturer
Unknown
Mission
Operational Commercial Technology
Bus & Motor
Unknown
Mass
Unknown
Launch date (UTC)
2025-11-28 (6 months ago)
Launch vehicle
FALCON 9
Launch site
Air Force Western Test Range (AFWTR)
Object type
Payload
Rocket body
Debris
Shape & HBR
Box, 0.5 m
Radar Cross Section
0.575 m²

Expand to show TLE details & history
Last TLE update: 1 day ago

TLE from 1 day ago
0 AE5RA
1 66685U 25276V   26144.15894253  .00009329  00000-0  40871-3 0  9993
2 66685  97.4218 218.4679 0006424  98.4265 261.7700 15.22209910 26799
Epoch: 2026-05-24T03:48Z
TLE epoch observation values (Epoch: 2026-05-24T03:48:52.634Z)
Latitude
Longitude
-80.5165°
Altitude
502.905 km
Speed
7.612 km/s
True Right ascension
14h 33m 52s
True Declination
0° 00' 00"
Sunlit
Object was in full shadow at epoch
Visualization orbit readout
Latitude
Unknown
Longitude
Unknown
Altitude
Unknown
Speed
Unknown
Apparent Right ascension
Unknown
Apparent Declination
Unknown
Sunlit
N/A
Visualization observer readout
Local Sidereal Time
13:38:42
Azimuth
Unknown
Elevation
Unknown
Doppler factor
Unknown
Orbital elements
Apogee altitude
500.556 km
Perigee altitude
491.724 km
Semi-major axis
6,874.277 km
Eccentricity
0.00064
Inclination
97.4218°
RAAN
218.4679°
Arg. of periapsis
98.4265°
True anomaly
261.69715°
Mean anomaly
261.77°
Eccentric anomaly
261.73358°
Mean motion
3.80805 °/min
Orbital period
94.54 mins
BSTAR
0.00040871
Loading maneuver chart data...
Computing Atmospheric mass density...
Loading historical data...
Loading historical data...
Loading historical data...
Loading historical data...
Loading historical data...
Loading historical data...
Loading historical data...

Documentation

Showing up to 5 results
|